Location: Napa Junction
(38.1874°N, 122.2508°W)
Time: 12:18:12
(UTC+00:00)

NOSS 3-2 (A) - Pass Details

Date: 08 September 2024
Orbit: 700 x 1505 km, 63.4° (Epoch: 09 October)

Event Time Altitude Azimuth Distance (km) Brightness Sun altitude
Exits shadow 12:35:00 11° 206° (SSW) 2,170 4.9 -14.3°
Maximum altitude 12:39:52 77° 120° (ESE) 801 3.2 -13.3°
Drops below altitude 10° 12:45:36 10° 35° (NE) 2,543 6.5 -12.3°
Sets 12:48:20 0° 35° (NE) 3,604 7.4 -11.8°
